Regional Weather Roundup
Issued by NWS

Home | Current Version | Previous Version | Graphics & Text | Print | Product List | Glossary On
Versions: 1 2 3 4 5 6 7 8 9 10 11 12 13 14 15 16 17 18 19 20 21 22 23 24 25 26 27 28 29 30 31 32 33 34 35 36 37 38 39 40 41 42 43 44 45 46 47 48 49 50
000
ASUS43 KFSD 231802
RWRSD

WEATHER ROUNDUP FOR SOUTH DAKOTA
NATIONAL WEATHER SERVICE SIOUX FALLS SD
100 PM CDT MON MAY 23 2016

NOTE: "FAIR" INDICATES FEW OR NO CLOUDS BELOW 12,000 FEET WITH NO
SIGNIFICANT WEATHER AND/OR OBSTRUCTIONS TO VISIBILITY.


SDZ001>005-009-010-012>017-231900-
NORTHWEST AND NORTH CENTRAL SOUTH DAKOTA

CITY           SKY/WX    TMP DP  RH WIND       PRES   REMARKS
BUFFALO          N/A     70  31  23 MISG      29.68S
FAITH            N/A     71  39  31 SE3       29.73R
MOBRIDGE       SUNNY     74  48  39 VRB7      29.68S
$$

SDZ012>016-024>037-041>051-057-063-072>074-231900-
SOUTHWEST AND SOUTH CENTRAL SOUTH DAKOTA

CITY           SKY/WX    TMP DP  RH WIND       PRES   REMARKS
RAPID CTY ARPT SUNNY     70  39  32 SE8       29.74F
PIERRE         SUNNY     72  52  49 S7        29.70F
CUSTER         SUNNY     59  25  27 SW9G20    29.85S
ELLSWORTH AFB  SUNNY     69  41  35 E5        29.74F
PHILIP         SUNNY     73  49  42 SW8       29.73S
PINE RIDGE     SUNNY     70  35  27 W15G22    29.79F
WINNER         FAIR      72  52  49 SW9       29.75S
$$

SDZ004>011-016>023-039-040-231900-
NORTHEAST SOUTH DAKOTA

CITY           SKY/WX    TMP DP  RH WIND       PRES   REMARKS
ABERDEEN       SUNNY     76  54  46 SW12      29.70F
WATERTOWN      MOSUNNY   72  59  63 SW13      29.74F
BROOKINGS      MOSUNNY   69  61  75 S14G20    29.76S
SISSETON         N/A     76  57  51 W15       29.69S
$$

SDZ017-020-022-023-036>040-048>070-231900-
SOUTHEAST SOUTH DAKOTA

CITY           SKY/WX    TMP DP  RH WIND       PRES   REMARKS
SIOUX FALLS    CLOUDY    67  62  84 SW7       29.78R
HURON          MOSUNNY   73  57  57 VRB7      29.72F
MITCHELL       CLOUDY    70  55  59 S7        29.75F
YANKTON        PTSUNNY   70  63  78 SW9       29.76S
$$

ABBREVIATIONS USED IN REMARKS
   TC - TEMPERATURE IN CELSIUS
  WCI - WIND CHILL INDEX
   HX - HEAT INDEX
  VSB - VISIBILITY




USA.gov is the U.S. government's official web portal to all federal, state and local government web resources and services.